EW3000 Weather Reports


Display with metric or nautical units.
time (UTC)temp
F
wind
direction
speed
MPH
gust
MPH
rain 1hr
in
rain 24hr
in
rain mn
in
humidity
%
barometer
mb
20260904215850 88 0.0 0.0 0.00 0.01 0.00 62 1012.9
20260904215356 88 0.0 0.0 0.00 0.01 0.00 61 1012.9
20260904214841 88 0.0 0.0 0.00 0.01 0.00 61 1013.0
20260904214348 89 0.0 0.0 0.00 0.01 0.00 61 1012.9
20260904213835 89 0.0 0.0 0.00 0.01 0.00 61 1012.9
20260904213408 89 0.0 0.0 0.00 0.01 0.00 59 1012.8
20260904212849 89 0.0 0.0 0.00 0.01 0.00 59 1012.9
20260904212354 89 0.0 0.0 0.00 0.01 0.00 59 1012.9
20260904211843 89 0.0 0.0 0.00 0.01 0.00 60 1013.1
20260904211350 89 0.0 0.0 0.00 0.01 0.00 60 1013.0
20260904210837 90 0.0 0.0 0.00 0.01 0.00 59 1013.1
20260904210348 90 0.0 0.0 0.00 0.01 0.00 58 1013.3
20260904205853 90 0.0 0.0 0.00 0.01 0.00 60 1013.3
20260904205340 90 0.0 0.0 0.00 0.01 0.00 59 1013.2
20260904204848 90 0.0 0.0 0.00 0.01 0.00 58 1013.2
20260904204416 90 0.0 0.0 0.00 0.01 0.00 58 1013.2
20260904203843 91 0.0 0.0 0.00 0.01 0.00 58 1013.2
20260904203415 91 0.0 0.0 0.00 0.01 0.00 57 1013.2
20260904202856 92 0.0 0.0 0.00 0.01 0.00 55 1013.2
20260904202342 92 0.0 0.0 0.00 0.01 0.00 54 1013.2
20260904201849 93 0.0 0.0 0.00 0.01 0.00 54 1013.2
20260904201355 93 0.0 0.0 0.00 0.01 0.00 53 1013.2
20260904200840 93 0.0 0.0 0.00 0.01 0.00 53 1013.2
20260904200346 94 0.0 0.0 0.00 0.01 0.00 53 1013.0
20260904195851 94 0.0 0.0 0.00 0.01 0.00 53 1013.0
20260904195342 93 0.0 0.0 0.00 0.01 0.00 53 1012.9
20260904194850 93 0.0 0.0 0.00 0.01 0.00 54 1013.1
20260904194341 93 0.0 0.0 0.00 0.01 0.00 55 1013.2
20260904193912 92 0.0 0.0 0.00 0.01 0.00 56 1013.2
20260904193359 92 0.0 0.0 0.00 0.01 0.00 56 1013.3
20260904192842 92 0.0 0.0 0.00 0.01 0.00 56 1013.5
20260904192416 92 0.0 0.0 0.00 0.01 0.00 56 1013.7
20260904191845 91 0.0 0.0 0.00 0.01 0.00 59 1013.8
20260904191338 91 0.0 0.0 0.00 0.01 0.00 59 1013.9
20260904190848 91 0.0 0.0 0.00 0.01 0.00 58 1014.1
20260904190358 90 0.0 0.0 0.00 0.01 0.00 58 1014.1
20260904185906 90 0.0 0.0 0.00 0.01 0.00 59 1014.3
20260904185353 90 0.0 0.0 0.00 0.01 0.00 60 1014.4
20260904184838 90 0.0 0.0 0.00 0.01 0.00 60 1014.4
20260904184348 90 0.0 0.0 0.00 0.01 0.00 60 1014.4
20260904183914 90 0.0 0.0 0.00 0.01 0.00 61 1014.4
20260904183401 90 0.0 0.0 0.00 0.01 0.00 60 1014.4
20260904182845 89 0.0 0.0 0.00 0.01 0.00 61 1014.5
20260904182353 89 0.0 0.0 0.00 0.01 0.00 60 1014.5
20260904181902 89 0.0 0.0 0.00 0.01 0.00 61 1014.5
20260904181347 89 0.0 0.0 0.00 0.01 0.00 62 1014.5
20260904180858 88 0.0 0.0 0.00 0.01 0.00 62 1014.5
20260904180349 88 0.0 0.0 0.00 0.01 0.00 62 1014.5
20260904175910 88 0.0 0.0 0.00 0.01 0.00 62 1014.5
20260904175338 88 0.0 0.0 0.00 0.01 0.00 64 1014.5
20260904174848 87 0.0 0.0 0.00 0.01 0.00 63 1014.5
20260904174353 87 0.0 0.0 0.00 0.01 0.00 63 1014.6
20260904173845 87 0.0 0.0 0.00 0.01 0.00 64 1014.6
20260904173354 87 0.0 0.0 0.00 0.01 0.00 64 1014.7
20260904172841 87 0.0 0.0 0.00 0.01 0.00 64 1014.8
20260904172351 87 0.0 0.0 0.00 0.01 0.00 64 1014.8
20260904171901 87 0.0 0.0 0.00 0.01 0.00 65 1014.7
20260904171349 86 0.0 0.0 0.00 0.01 0.00 67 1014.8
20260904170838 86 0.0 0.0 0.00 0.01 0.00 68 1014.9
20260904170349 85 0.0 0.0 0.00 0.01 0.00 69 1015.0
20260904165855 85 0.0 0.0 0.00 0.01 0.00 69 1014.9
20260904165346 84 0.0 0.0 0.00 0.01 0.00 71 1014.9
20260904164856 84 0.0 0.0 0.00 0.01 0.00 71 1014.9
20260904164346 83 0.0 0.0 0.00 0.01 0.00 74 1014.9
20260904163857 83 0.0 0.0 0.00 0.01 0.00 73 1014.9
20260904163347 82 0.0 0.0 0.00 0.01 0.00 72 1014.9
20260904162852 82 0.0 0.0 0.00 0.01 0.00 74 1015.0
20260904162404 82 0.0 0.0 0.00 0.01 0.00 78 1015.2
20260904161856 81 0.0 0.0 0.00 0.01 0.00 77 1015.1
20260904161405 81 0.0 0.0 0.00 0.01 0.00 78 1015.0
20260904160853 81 0.0 0.0 0.00 0.01 0.00 80 1015.1
20260904160403 80 0.0 0.0 0.00 0.01 0.00 80 1015.0
20260904155848 80 0.0 0.0 0.00 0.01 0.00 78 1015.0
20260904155338 80 0.0 0.0 0.00 0.01 0.00 80 1015.1
20260904154909 79 0.0 0.0 0.00 0.01 0.00 79 1015.2
20260904154356 79 0.0 0.0 0.00 0.01 0.00 81 1015.2
20260904153846 79 0.0 0.0 0.00 0.01 0.00 79 1015.2
20260904153352 79 0.0 0.0 0.00 0.01 0.00 84 1015.3
20260904152916 78 0.0 0.0 0.00 0.01 0.00 85 1015.3
20260904152405 78 0.0 0.0 0.00 0.01 0.00 81 1015.2
20260904151857 78 0.0 0.0 0.00 0.01 0.00 85 1015.1
20260904151344 77 0.0 0.0 0.00 0.01 0.00 88 1015.1
20260904150856 77 0.0 0.0 0.00 0.01 0.00 87 1015.2
20260904150346 77 0.0 0.0 0.00 0.01 0.00 88 1015.3
20260904145852 77 0.0 0.0 0.00 0.01 0.00 88 1015.1
20260904145342 76 0.0 0.0 0.00 0.01 0.00 89 1015.2
20260904144850 76 0.0 0.0 0.00 0.01 0.00 88 1015.2
20260904144339 76 0.0 0.0 0.00 0.01 0.00 89 1015.2
20260904143847 76 0.0 0.0 0.00 0.01 0.00 89 1015.2
20260904143401 75 0.0 0.0 0.00 0.01 0.00 90 1015.2
20260904142842 75 0.0 0.0 0.00 0.01 0.00 90 1015.2
20260904142349 75 0.0 0.0 0.00 0.01 0.00 93 1015.1
20260904141854 75 0.0 0.0 0.00 0.01 0.00 92 1015.2
20260904141358 74 0.0 0.0 0.00 0.01 0.00 93 1015.1
20260904140844 74 0.0 0.0 0.00 0.01 0.00 92 1015.1
20260904140410 74 0.0 0.0 0.00 0.01 0.00 92 1015.1
20260904135851 74 0.0 0.0 0.00 0.01 0.00 93 1015.0
20260904135420 74 0.0 0.0 0.00 0.01 0.00 93 1015.0
20260904134847 73 0.0 0.0 0.00 0.01 0.00 93 1015.1
20260904134352 73 0.0 0.0 0.00 0.01 0.00 93 1015.0
20260904133858 73 0.0 0.0 0.00 0.01 0.00 93 1015.0
20260904133341 73 0.0 0.0 0.00 0.01 0.00 93 1014.9
20260904132848 72 0.0 0.0 0.00 0.01 0.00 93 1014.9
20260904132415 72 0.0 0.0 0.00 0.01 0.00 93 1014.9
20260904131900 72 0.0 0.0 0.00 0.01 0.00 93 1014.9
20260904131344 72 0.0 0.0 0.00 0.01 0.00 93 1015.1
20260904130910 72 0.0 0.0 0.00 0.01 0.00 93 1015.1
20260904130359 72 0.0 0.0 0.00 0.01 0.00 93 1015.1
20260904125901 71 0.0 0.0 0.00 0.01 0.00 93 1015.1
20260904125346 71 0.0 0.0 0.00 0.01 0.00 93 1015.2
20260904124914 71 0.0 0.0 0.00 0.01 0.00 93 1015.3
20260904124359 71 0.0 0.0 0.00 0.01 0.00 93 1015.3
20260904123847 71 0.0 0.0 0.00 0.01 0.00 92 1015.4
20260904123412 70 0.0 0.0 0.00 0.01 0.00 92 1015.4
20260904122856 70 0.0 0.0 0.00 0.01 0.00 92 1015.4
20260904122403 70 0.0 0.0 0.00 0.01 0.00 93 1015.4
20260904121848 70 0.0 0.0 0.00 0.01 0.00 93 1015.4
20260904121352 70 0.0 0.0 0.00 0.01 0.00 92 1015.5
20260904120918 70 0.0 0.0 0.00 0.01 0.00 93 1015.5
20260904120417 70 0.0 0.0 0.00 0.01 0.00 93 1015.5
20260904115845 69 0.0 0.0 0.00 0.01 0.00 93 1015.5
20260904115354 69 0.0 0.0 0.00 0.01 0.00 93 1015.5
20260904114839 69 0.0 0.0 0.00 0.01 0.00 93 1015.4
20260904114346 69 0.0 0.0 0.00 0.01 0.00 93 1015.3
20260904113851 69 0.0 0.0 0.00 0.01 0.00 93 1015.3
20260904113400 69 0.0 0.0 0.00 0.01 0.00 93 1015.2
20260904112840 69 0.0 0.0 0.00 0.01 0.00 93 1015.2
20260904112348 69 0.0 0.0 0.00 0.01 0.00 93 1015.2
20260904111853 69 0.0 0.0 0.00 0.01 0.00 93 1015.3
20260904111402 69 0.0 0.0 0.00 0.01 0.00 93 1015.2
20260904110912 69 0.0 0.0 0.00 0.01 0.00 93 1015.2
20260904110403 69 0.0 0.0 0.00 0.01 0.00 93 1015.0
20260904105845 69 0.0 0.0 0.00 0.01 0.00 93 1014.9
20260904105356 69 0.0 0.0 0.00 0.01 0.00 93 1014.8
20260904104900 69 0.0 0.0 0.00 0.01 0.00 93 1014.7
20260904104408 70 0.0 0.0 0.00 0.01 0.00 93 1014.6
20260904103850 70 0.0 0.0 0.00 0.01 0.00 93 1014.4
20260904103357 70 0.0 0.0 0.00 0.01 0.00 93 1014.4
20260904102858 70 0.0 0.0 0.00 0.01 0.00 93 1014.4
20260904102402 70 0.0 0.0 0.00 0.01 0.00 93 1014.3
20260904101845 70 0.0 0.0 0.00 0.01 0.00 93 1014.4
20260904101352 70 0.0 0.0 0.00 0.01 0.00 93 1014.4
20260904100856 70 0.0 0.0 0.00 0.01 0.00 93 1014.2
20260904100423 70 0.0 0.0 0.00 0.01 0.00 93 1014.2
20260904095904 70 0.0 0.0 0.00 0.01 0.00 93 1014.2
20260904095406 70 0.0 0.0 0.00 0.01 0.00 93 1014.2
20260904094852 70 0.0 0.0 0.00 0.01 0.00 93 1014.1
20260904094400 70 0.0 0.0 0.00 0.01 0.00 92 1014.0
20260904093848 70 0.0 0.0 0.00 0.01 0.00 92 1014.1
20260904093352 70 0.0 0.0 0.00 0.01 0.00 92 1014.0
20260904092857 71 0.0 0.0 0.00 0.01 0.00 92 1014.1
20260904092344 71 0.0 0.0 0.00 0.01 0.00 92 1014.1
20260904091852 71 0.0 0.0 0.00 0.01 0.00 93 1014.3
20260904091354 71 0.0 0.0 0.00 0.01 0.00 93 1014.3
20260904090842 71 0.0 0.0 0.00 0.01 0.00 93 1014.3
20260904090349 71 0.0 0.0 0.00 0.01 0.00 93 1014.3
20260904085854 71 0.0 0.0 0.00 0.01 0.00 93 1014.4
20260904085343 71 0.0 0.0 0.00 0.01 0.00 93 1014.3
20260904084850 71 0.0 0.0 0.00 0.01 0.00 92 1014.4
20260904084401 71 0.0 0.0 0.00 0.01 0.00 92 1014.4
20260904083846 71 0.0 0.0 0.00 0.01 0.00 92 1014.6
20260904083349 71 0.0 0.0 0.00 0.01 0.00 92 1014.4
20260904082913 71 0.0 0.0 0.00 0.01 0.00 92 1014.4
20260904082342 71 0.0 0.0 0.00 0.01 0.00 92 1014.4
20260904081849 71 0.0 0.0 0.00 0.01 0.00 92 1014.5
20260904081355 71 0.0 0.0 0.00 0.01 0.00 92 1014.6
20260904080904 71 0.0 0.0 0.00 0.01 0.00 92 1014.6
20260904080412 71 0.0 0.0 0.00 0.01 0.00 92 1014.6
20260904075856 71 0.0 0.0 0.00 0.01 0.00 92 1014.6
20260904075406 71 0.0 0.0 0.00 0.01 0.00 92 1014.6
20260904074854 71 0.0 0.0 0.00 0.01 0.00 92 1014.6
20260904074340 71 0.0 0.0 0.00 0.01 0.00 92 1014.7
20260904073852 71 0.0 0.0 0.00 0.01 0.00 92 1014.5
20260904073359 71 0.0 0.0 0.00 0.01 0.00 92 1014.5
20260904072842 72 0.0 0.0 0.00 0.01 0.00 91 1014.6
20260904072350 72 0.0 0.0 0.00 0.01 0.00 91 1014.6
20260904071839 72 0.0 0.0 0.00 0.01 0.00 91 1014.5
20260904071351 72 0.0 0.0 0.00 0.01 0.00 91 1014.4
20260904070842 72 0.0 0.0 0.00 0.01 0.00 91 1014.4
20260904070411 72 0.0 0.0 0.00 0.01 0.00 90 1014.3
20260904065856 72 0.0 0.0 0.00 0.01 0.00 90 1014.2
20260904065407 73 0.0 0.0 0.00 0.01 0.00 90 1014.1
20260904064854 73 0.0 0.0 0.00 0.01 0.00 90 1013.9
20260904064342 73 0.0 0.0 0.00 0.01 0.00 90 1013.8
20260904063911 73 0.0 0.0 0.00 0.01 0.00 89 1013.6
20260904063356 73 0.0 0.0 0.00 0.01 0.00 89 1013.3
20260904062842 73 0.0 0.0 0.00 0.01 0.00 88 1013.1
20260904062350 73 0.0 0.0 0.00 0.01 0.00 89 1013.1
20260904061839 74 0.0 0.0 0.00 0.01 0.00 88 1012.9
20260904061348 74 0.0 0.0 0.00 0.01 0.00 88 1012.9
20260904060856 74 0.0 0.0 0.00 0.01 0.00 89 1012.9
20260904060344 74 0.0 0.0 0.00 0.01 0.00 89 1012.9
20260904055911 74 0.0 0.0 0.00 0.01 0.00 89 1013.0
20260904055339 74 0.0 0.0 0.00 0.01 0.00 90 1012.9
20260904054851 74 0.0 0.0 0.00 0.01 0.00 90 1013.1
20260904054338 75 0.0 0.0 0.00 0.01 0.00 89 1013.1
20260904053851 75 0.0 0.0 0.00 0.01 0.00 89 1013.2
20260904053342 75 0.0 0.0 0.00 0.01 0.00 88 1013.4
20260904052850 75 0.0 0.0 0.00 0.01 0.00 88 1013.5
20260904052341 75 0.0 0.0 0.00 0.01 0.00 88 1013.5
20260904051850 75 0.0 0.0 0.00 0.01 0.00 87 1013.6
20260904051356 75 0.0 0.0 0.00 0.01 0.00 87 1013.8
20260904050904 75 0.0 0.0 0.00 0.01 0.00 87 1013.8
20260904050408 75 0.0 0.0 0.00 0.01 0.00 88 1013.8
20260904045854 76 0.0 0.0 0.00 0.01 0.00 88 1013.7
20260904045344 76 0.0 0.0 0.00 0.01 0.00 88 1013.7
20260904044850 76 0.0 0.0 0.00 0.01 0.00 89 1013.7
20260904044359 76 0.0 0.0 0.00 0.01 0.00 89 1013.6
20260904043908 76 0.0 0.0 0.00 0.01 0.00 89 1013.6
20260904043408 76 0.0 0.0 0.00 0.01 0.00 90 1013.7
20260904042914 76 0.0 0.0 0.00 0.01 0.00 93 1013.8
20260904042342 76 0.0 0.0 0.00 0.01 0.00 93 1013.9
20260904041853 76 0.0 0.0 0.00 0.01 0.00 92 1013.9
20260904041348 76 0.0 0.0 0.00 0.01 0.00 92 1014.1
20260904040853 76 0.0 0.0 0.00 0.01 0.00 92 1014.1
20260904040401 76 0.0 0.0 0.00 0.01 0.00 92 1014.2
20260904035845 76 0.0 0.0 0.00 0.01 0.01 92 1014.2
20260904035350 76 0.0 0.0 0.01 0.01 0.01 92 1014.3
20260904034918 76 0.0 0.0 0.01 0.01 0.01 92 1014.5
20260904034406 76 0.0 0.0 0.01 0.01 0.01 93 1014.6
20260904033853 76 0.0 0.0 0.01 0.01 0.01 93 1014.6
20260904033400 76 0.0 0.0 0.01 0.01 0.01 93 1014.6
20260904032841 76 0.0 0.0 0.01 0.01 0.01 93 1014.8
20260904032348 76 0.0 0.0 0.01 0.01 0.01 93 1014.9
20260904031856 76 0.0 0.0 0.01 0.01 0.01 93 1015.2
20260904031401 76 0.0 0.0 0.01 0.01 0.01 93 1015.2
20260904030844 77 0.0 0.0 0.01 0.01 0.01 93 1015.0
20260904030349 77 0.0 0.0 0.01 0.01 0.01 93 1015.0
20260904025853 77 0.0 0.0 0.01 0.01 0.01 93 1015.2
20260904025340 77 0.0 0.0 0.00 0.00 0.00 93 1015.4
20260904024848 77 0.0 0.0 0.00 0.00 0.00 93 1015.3
20260904024351 77 0.0 0.0 0.00 0.00 0.00 93 1015.2
20260904023858 77 0.0 0.0 0.00 0.00 0.00 93 1015.1
20260904023359 77 0.0 0.0 0.00 0.00 0.00 93 1015.0
20260904022843 77 0.0 0.0 0.00 0.00 0.00 93 1014.9
20260904022348 77 0.0 0.0 0.00 0.00 0.00 93 1014.8
20260904021856 77 0.0 0.0 0.00 0.00 0.00 93 1014.7
20260904021405 77 0.0 0.0 0.00 0.00 0.00 93 1014.8
20260904020847 78 0.0 0.0 0.00 0.00 0.00 93 1014.7
20260904020359 78 0.0 0.0 0.00 0.00 0.00 92 1014.7
20260904015842 78 0.0 0.0 0.00 0.00 0.00 92 1014.7
20260904015350 78 0.0 0.0 0.00 0.00 0.00 92 1014.5
20260904014856 78 0.0 0.0 0.00 0.00 0.00 92 1014.5
20260904014343 78 0.0 0.0 0.00 0.00 0.00 92 1014.5
20260904013854 78 0.0 0.0 0.00 0.00 0.00 92 1014.4
20260904013343 78 0.0 0.0 0.00 0.00 0.00 90 1014.3
20260904012848 78 0.0 0.0 0.00 0.00 0.00 89 1014.2
20260904012356 78 0.0 0.0 0.00 0.00 0.00 89 1014.3
20260904011903 78 0.0 0.0 0.00 0.00 0.00 91 1014.6
20260904011350 79 0.0 0.0 0.00 0.00 0.00 91 1014.7
20260904010856 79 0.0 0.0 0.00 0.00 0.00 91 1015.0
20260904010403 79 0.0 0.0 0.00 0.00 0.00 91 1015.0
20260904005906 79 0.0 0.0 0.00 0.00 0.00 89 1014.9
20260904005351 79 0.0 0.0 0.00 0.00 0.00 87 1015.0
20260904004854 79 0.0 0.0 0.00 0.00 0.00 86 1014.9
20260904004340 79 0.0 0.0 0.00 0.00 0.00 86 1015.2
20260904003848 79 0.0 0.0 0.00 0.00 0.00 85 1015.3
20260904003355 80 0.0 0.0 0.00 0.00 0.00 86 1015.2
20260904002859 80 0.0 0.0 0.00 0.00 0.00 86 1015.3
20260904002344 80 0.0 0.0 0.00 0.00 0.00 88 1015.3
20260904001852 80 0.0 0.0 0.00 0.00 0.00 88 1015.2
20260904001342 80 0.0 0.0 0.00 0.00 0.00 87 1015.2
20260904000848 81 0.0 0.0 0.00 0.00 0.00 83 1015.0
20260904000352 81 0.0 0.0 0.00 0.00 0.00 82 1014.9
20260903235856 81 0.0 0.0 0.00 0.00 0.00 82 1014.9
20260903235342 82 0.0 0.0 0.00 0.00 0.00 81 1014.8
20260903234909 82 0.0 0.0 0.00 0.00 0.00 80 1014.8
20260903234354 82 0.0 0.0 0.00 0.00 0.00 84 1014.6
20260903233844 83 0.0 0.0 0.00 0.00 0.00 83 1014.6
20260903233354 83 0.0 0.0 0.00 0.00 0.00 78 1014.6
20260903232859 83 0.0 0.0 0.00 0.00 0.00 78 1014.5
20260903232346 84 0.0 0.0 0.00 0.00 0.00 77 1014.6
20260903231840 84 0.0 0.0 0.00 0.00 0.00 76 1014.5
20260903231346 84 0.0 0.0 0.00 0.00 0.00 75 1014.5
20260903230906 85 0.0 0.0 0.00 0.00 0.00 75 1014.5
20260903230415 85 0.0 0.0 0.00 0.00 0.00 74 1014.6
20260903225857 85 0.0 0.0 0.00 0.00 0.00 73 1014.5
20260903225406 86 0.0 0.0 0.00 0.00 0.00 73 1014.6
20260903224853 86 0.0 0.0 0.00 0.00 0.00 73 1014.7
20260903224341 86 0.0 0.0 0.00 0.00 0.00 73 1014.7
20260903223848 87 0.0 0.0 0.00 0.00 0.00 71 1014.5
20260903223355 87 0.0 0.0 0.00 0.00 0.00 73 1014.5
20260903222841 87 0.0 0.0 0.00 0.00 0.00 69 1014.5
20260903222347 88 0.0 0.0 0.00 0.00 0.00 69 1014.2
20260903221852 88 0.0 0.0 0.00 0.00 0.00 72 1014.1
20260903221359 89 0.0 0.0 0.00 0.00 0.00 72 1014.1
20260903220848 89 0.0 0.0 0.00 0.00 0.00 75 1014.1
20260903220413 90 0.0 0.0 0.00 0.00 0.00 71 1014.2